FDX659 TFFF-KMIA

Flight info

Callsign FDX659
Flight time N/A
Altitude FL340
Route EMOL2R EMOLA A555 DUNTA UA555 ILURI Y185 ACONY Y280 CHASO BRRGO BR55V ZQA VIICE2
Aircraft B77F/H-SDE1E2E3FGHIJ2J3J4J5M1RWXY/LB1D1

Departure

Time 2026-04-28 16:14
Airport Martinique Aimé Césaire International Airport (TFFF)

Arrival

Time N/A
Airport Miami International Airport (KMIA)
Time Latitude Longitude Altitude Speed Heading
2026-04-28 16:11 14.59038 -61.00686 45 ft 28 kts 262°
2026-04-28 16:12 14.58960 -61.01150 46 ft 37 kts 259°
2026-04-28 16:12 14.58910 -61.01399 45 ft 35 kts 261°
2026-04-28 16:13 14.58881 -61.01746 45 ft 15 kts 293°
2026-04-28 16:13 14.58879 -61.01803 45 ft 7 kts 192°
2026-04-28 16:13 14.58865 -61.01766 45 ft 1 kts 86°
2026-04-28 16:14 14.58997 -61.00959 46 ft 128 kts 80°
2026-04-28 16:14 14.59432 -60.98826 1153 ft 163 kts 82°
2026-04-28 16:15 14.59816 -60.96371 2062 ft 195 kts 80°
2026-04-28 16:15 14.60061 -60.94929 2524 ft 216 kts 81°
2026-04-28 16:15 14.60325 -60.93352 3113 ft 234 kts 81°
2026-04-28 16:16 14.60876 -60.89901 4694 ft 252 kts 79°
2026-04-28 16:16 14.61498 -60.88243 5628 ft 255 kts 56°
2026-04-28 16:17 14.64549 -60.86425 7254 ft 276 kts
2026-04-28 16:17 14.66465 -60.86717 8065 ft 284 kts 347°
2026-04-28 16:17 14.68345 -60.87293 8928 ft 285 kts 346°
2026-04-28 16:17 14.70234 -60.87890 9705 ft 288 kts 345°
2026-04-28 16:18 14.72177 -60.88505 10354 ft 297 kts 345°
2026-04-28 16:18 14.74213 -60.89147 10789 ft 314 kts 345°
2026-04-28 16:18 14.76360 -60.89824 11227 ft 331 kts 344°
2026-04-28 16:18 14.78620 -60.90536 11692 ft 347 kts 344°
2026-04-28 16:19 14.80976 -60.91279 12162 ft 363 kts 344°
2026-04-28 16:19 14.83441 -60.92055 12621 ft 378 kts 343°
2026-04-28 16:19 14.86026 -60.92866 13090 ft 393 kts 343°
2026-04-28 16:19 14.88606 -60.93882 13714 ft 403 kts 334°
2026-04-28 16:20 14.90996 -60.95431 14488 ft 410 kts 321°
2026-04-28 16:20 14.93060 -60.97437 15374 ft 411 kts 310°
2026-04-28 16:20 14.94720 -60.99824 16268 ft 412 kts 298°
2026-04-28 16:20 14.95912 -61.02499 17089 ft 413 kts 287°
2026-04-28 16:21 14.96762 -61.05319 17826 ft 416 kts 284°
2026-04-28 16:21 14.97578 -61.08196 18502 ft 422 kts 284°
2026-04-28 16:21 14.98408 -61.11131 19162 ft 427 kts 284°
2026-04-28 16:21 14.99241 -61.14076 19839 ft 431 kts 283°
2026-04-28 16:22 15.00081 -61.17048 20483 ft 436 kts 283°
2026-04-28 16:22 15.00932 -61.20057 21102 ft 441 kts 283°
2026-04-28 16:22 15.01791 -61.23095 21729 ft 444 kts 283°
2026-04-28 16:22 15.02659 -61.26162 22376 ft 448 kts 283°
2026-04-28 16:23 15.03530 -61.29243 23022 ft 451 kts 283°
2026-04-28 16:23 15.04416 -61.32379 23614 ft 455 kts 283°
2026-04-28 16:23 15.05303 -61.35521 24201 ft 460 kts 283°
2026-04-28 16:23 15.06198 -61.38697 24788 ft 464 kts 283°
2026-04-28 16:24 15.07101 -61.41899 25391 ft 468 kts 283°
2026-04-28 16:24 15.08010 -61.45128 25993 ft 472 kts 283°
2026-04-28 16:24 15.08929 -61.48392 26629 ft 476 kts 283°
2026-04-28 16:24 15.09852 -61.51675 27243 ft 480 kts 283°
2026-04-28 16:25 15.10788 -61.55003 27823 ft 485 kts 283°
2026-04-28 16:25 15.11730 -61.58356 28379 ft 490 kts 283°
2026-04-28 16:25 15.12779 -61.61711 28923 ft 496 kts 289°
2026-04-28 16:25 15.14278 -61.64934 29476 ft 503 kts 297°
2026-04-28 16:26 15.16244 -61.67905 30324 ft 504 kts 306°
2026-04-28 16:26 15.18533 -61.70610 31370 ft 498 kts 309°
2026-04-28 16:26 15.20827 -61.73212 32452 ft 489 kts 308°
2026-04-28 16:26 15.23101 -61.75794 33468 ft 482 kts 308°
2026-04-28 16:27 15.25341 -61.78347 34373 ft 478 kts 308°
2026-04-28 16:27 15.27556 -61.80879 35222 ft 475 kts 308°
2026-04-28 16:27 15.31966 -61.85940 36017 ft 475 kts 308°
2026-04-28 16:28 15.34168 -61.88471 36021 ft 472 kts 308°
2026-04-28 16:28 15.38550 -61.93516 36024 ft 469 kts 308°
2026-04-28 16:29 15.45103 -62.01078 36021 ft 469 kts 308°
2026-04-28 16:30 15.51621 -62.08611 36024 ft 469 kts 308°
2026-04-28 16:30 15.55966 -62.13636 36026 ft 467 kts 308°
2026-04-28 16:31 15.60285 -62.18637 36027 ft 466 kts 308°
2026-04-28 16:31 15.64603 -62.23643 36030 ft 467 kts 308°
2026-04-28 16:32 15.68945 -62.28682 36028 ft 468 kts 308°
2026-04-28 16:32 15.75431 -62.36215 36027 ft 467 kts 308°
2026-04-28 16:33 15.78313 -62.39565 36030 ft 466 kts 308°
2026-04-28 16:33 15.84068 -62.46260 36033 ft 466 kts 308°
2026-04-28 16:34 15.88368 -62.51265 36030 ft 465 kts 308°
2026-04-28 16:34 15.92655 -62.56259 36033 ft 465 kts 308°
2026-04-28 16:35 15.96949 -62.61262 36032 ft 464 kts 308°
2026-04-28 16:35 16.01256 -62.66283 36040 ft 465 kts 308°
2026-04-28 16:36 16.05535 -62.71276 36042 ft 464 kts 307°
2026-04-28 16:36 16.09823 -62.76287 36043 ft 464 kts 308°
2026-04-28 16:37 16.14112 -62.81299 36037 ft 464 kts 307°
2026-04-28 16:38 16.20532 -62.88812 36036 ft 465 kts 307°
2026-04-28 16:38 16.24809 -62.93820 36035 ft 463 kts 307°
2026-04-28 16:39 16.29095 -62.98842 36036 ft 464 kts 307°
2026-04-28 16:39 16.33226 -63.03952 36037 ft 462 kts 304°
2026-04-28 16:40 16.37212 -63.09150 36035 ft 461 kts 304°
2026-04-28 16:40 16.41213 -63.14349 36036 ft 461 kts 304°